RH
95 93 88 87 88 87 86 88 86 85 85 91 92 90 92 88 90 89 85 84 82 75 79 89 94 98 95 94 95 83 76 62 54 50 82 80 82 82 74 68 76 80 74
96 96 90 90 93 91 91 90 88 87 87 87 85 85 82 84 85 86 92 90 90 88 89 94 96 96 96 90 85 93 90 86 71 60 50 68 77 72 68 62 75 80 84
95 95 86 87 89 89 88 87 86 86 87 88 90 91 95 95 94 92 91 90 90 90 92 88 88 91 85 80 74 78 87 88 88 80 61 57 52 60 77 77 63 76 77
90 86 81 82 81 78 75 72 69 68 68 70 74 76 78 79 80 80 86 94 91 88 86 88 91 89 85 84 85 87 84 69 84 92 82 58 64 58 68 89 93 65 80
80 75 68 58 50 45 41 39 37 36 36 36 37 38 41 50 53 55 62 74 82 86 90 89 90 91 90 88 87 87 89 90 86 93 94 86 62 71 81 86 84 81 88
54 45 42 43 41 37 34 31 34 31 33 39 36 56 69 70 66 63 45 47 55 64 75 80 84 82 82 88 90 91 91 84 84 85 88 86 86 66 65 80 95 85 83
43 42 40 32 30 32 33 34 38 63 71 73 72 72 74 71 70 70 58 59 57 53 55 57 57 57 57 59 77 89 87 85 80 78 82 83 81 81 91 93 92 94 92
41 34 30 30 30 32 34 38 44 72 74 76 65 53 49 48 53 50 42 49 49 41 44 50 60 48 42 50 49 56 63 69 77 80 79 78 76 78 96 95 93 89 88
36 32 31 30 31 34 38 41 45 49 52 54 53 52 52 52 52 51 49 64 75 74 75 74 62 48 46 49 51 51 50 52 61 70 78 82 84 90 100 95 93 95 92
36 33 32 33 35 36 38 44 48 51 53 55 56 56 55 54 54 56 56 56 54 54 55 56 54 50 48 48 48 48 48 48 55 58 70 79 80 77 98 97 97 97 96
38 36 35 35 37 38 41 43 47 51 55 57 59 60 60 58 59 58 60 60 59 57 56 55 54 52 52 51 50 49 48 47 48 49 48 51 58 74 80 91 89 86 87
45 41 38 38 39 40 42 44 49 54 60 64 66 65 60 56 53 54 56 58 57 56 54 53 53 52 51 50 50 52 51 49 48 48 50 50 49 66 71 76 78 80 82
46 42 40 40 40 41 42 46 51 56 61 65 64 61 52 50 50 51 53 52 51 49 48 49 48 47 46 49 51 53 52 52 51 50 50 51 51 52 67 71 71 68 69
46 45 43 42 41 42 44 47 52 58 62 60 55 52 51 51 53 56 59 59 56 55 56 58 57 56 54 54 54 52 52 54 56 58 60 58 57 56 72 78 82 84 86
47 46 44 43 42 43 44 49 55 63 64 60 60 60 57 53 56 61 62 62 62 61 60 61 57 49 52 53 49 49 58 57 56 61 66 67 68 83 97 98 97 97 97
47 46 45 45 44 44 45 52 59 65 65 66 64 59 55 57 59 63 64 64 64 65 64 59 46 31 27 29 22 35 53 71 69 70 74 73 72 71 97 100 100 98 97
46 46 45 46 45 44 42 50 59 65 69 71 70 62 57 54 53 54 58 57 51 49 49 37 23 16 16 15 13 29 63 74 78 82 79 75 74 72 79 95 99 100 100
45 44 47 48 46 45 44 52 63 69 73 73 71 65 55 45 40 38 35 32 28 25 22 15 14 13 19 21 17 39 75 78 90 84 79 76 75 75 75 78 82 98 100
44 46 48 48 47 47 46 54 62 67 74 75 73 68 57 45 39 28 19 16 15 14 15 16 14 15 18 16 23 50 76 88 91 83 80 78 78 76 73 70 69 71 95
46 49 50 50 49 50 46 50 57 64 68 75 73 69 61 49 40 25 19 14 13 13 13 14 15 16 25 26 29 62 76 96 90 79 74 75 81 80 74 69 63 58 53
51 51 51 50 49 50 49 46 50 55 61 71 74 71 65 54 48 30 23 20 17 17 20 21 20 20 25 27 32 40 77 81 84 80 76 67 63 76 82 76 68 58 50
51 51 50 50 52 54 51 46 49 53 56 62 64 65 65 58 56 40 30 27 23 20 21 21 22 27 32 42 64 80 78 58 74 70 80 61 40 38 63 80 75 65 57
52 50 52 54 54 53 54 52 51 52 52 56 55 59 65 65 60 50 36 32 30 27 24 24 25 28 37 34 49 61 51 60 91 71 92 79 51 35 61 66 71 66 54
50 53 54 52 52 55 58 58 54 52 54 49 54 57 59 62 60 53 42 37 34 32 29 26 26 28 33 40 41 57 57 82 89 74 54 60 53 34 51 63 76 74 56
56 52 52 53 53 56 59 60 60 57 54 53 54 53 55 58 58 57 51 44 40 36 34 30 27 28 32 39 47 52 59 74 89 94 95 81 43 33 53 56 83 68 54
51 42 36 35 36 47 58 62 64 63 59 61 57 56 54 54 55 57 58 54 50 43 37 35 30 29 32 36 42 47 62 63 70 91 96 82 84 57 44 78 84 74 54
Wind_Speed
6 7 6 8 8 7 6 7 7 7 7 7 8 8 6 7 7 6 7 6 6 5 5 5 6 6 7 4 4 5 6 6 5 3 2 1 1 2 3 3 4 1 2
9 9 8 8 8 7 6 6 6 5 5 6 6 6 6 7 8 8 7 7 6 5 5 5 6 6 7 7 5 6 6 7 6 5 4 5 4 4 4 3 2 1 2
10 8 7 8 7 7 7 7 7 7 6 6 6 6 7 7 8 8 7 7 5 6 5 5 7 8 8 8 7 7 7 7 8 7 6 6 6 6 5 5 4 3 3
11 8 8 7 7 7 6 6 6 6 6 6 7 7 7 8 8 8 7 7 6 6 6 7 8 9 9 8 8 8 8 7 8 7 7 7 7 6 7 8 9 7 6
10 8 7 6 6 5 6 6 7 7 8 8 8 8 9 9 10 9 9 8 7 7 7 7 8 8 7 7 8 9 9 9 8 8 8 8 8 8 8 11 13 10 8
10 8 6 5 4 4 6 6 7 7 8 9 9 9 11 11 11 11 9 8 8 7 7 8 8 8 8 7 8 8 8 8 8 8 9 9 10 10 11 11 8 10 11
10 7 5 3 4 5 7 8 8 8 10 10 10 10 10 11 11 10 7 7 7 7 8 9 9 9 9 9 8 8 9 9 9 10 10 10 11 12 12 12 13 11 13
8 6 4 4 4 5 7 8 8 9 10 10 9 9 10 10 8 9 8 8 9 9 8 8 8 9 9 8 9 9 9 10 11 11 11 11 11 12 12 12 13 13 14
7 4 4 4 5 6 7 8 8 8 8 9 9 10 10 9 8 8 7 8 8 8 7 6 6 7 8 7 7 7 7 8 9 10 11 12 12 12 13 12 12 12 13
6 4 4 5 6 7 7 8 7 7 8 8 9 9 10 9 9 8 7 7 7 7 7 7 7 8 8 8 7 7 7 6 6 6 6 8 9 11 11 11 11 11 12
5 3 4 5 6 7 7 7 7 7 7 7 8 9 10 10 9 9 8 8 7 8 8 8 9 10 10 10 10 10 10 9 8 7 6 6 6 6 7 7 10 11 11
5 3 3 4 6 7 8 8 8 7 7 8 9 11 11 10 10 9 8 8 9 10 10 10 11 11 11 11 11 11 11 11 11 11 9 8 8 8 7 7 7 8 9
5 2 2 3 6 7 7 7 7 7 7 8 10 10 10 10 10 9 9 10 11 11 11 11 10 11 11 11 10 10 10 10 10 10 10 11 11 11 9 9 10 10 9
6 4 0 3 5 6 7 7 6 7 8 9 9 10 10 11 10 10 11 12 13 13 13 12 12 11 10 10 11 10 10 9 9 9 8 8 9 9 8 8 8 8 8
9 6 2 2 4 5 6 6 5 6 8 9 10 10 11 11 11 11 11 12 13 13 14 13 14 14 13 12 11 11 9 9 8 6 6 5 4 4 6 7 8 8 9
11 8 3 1 3 5 6 5 4 5 6 7 9 10 10 11 11 11 12 13 13 13 14 15 16 16 15 15 14 10 9 8 6 4 4 3 4 4 9 10 10 10 11
13 8 5 3 3 5 5 5 4 4 4 6 9 9 10 11 11 11 12 13 14 14 14 15 15 15 14 15 15 8 6 5 6 5 6 6 7 8 9 11 12 14 14
12 9 7 5 4 5 5 4 4 4 4 5 7 9 9 10 11 11 12 13 14 14 15 15 16 16 16 19 17 9 5 5 6 6 7 8 9 10 10 10 11 14 15
13 10 8 5 4 4 4 4 5 5 5 6 7 8 9 9 10 11 12 12 13 14 14 17 17 17 18 21 15 7 4 4 6 6 9 10 11 11 12 12 12 13 14
13 11 8 6 5 5 5 5 5 5 6 8 8 8 9 9 10 10 11 12 14 15 15 16 17 15 13 20 10 5 5 6 5 6 9 9 10 10 11 11 13 14 13
13 11 7 6 5 7 6 5 5 6 7 9 10 10 9 9 10 10 11 12 12 14 15 17 18 16 12 19 8 4 4 4 4 3 5 7 9 9 9 10 11 13 14
11 8 7 7 8 7 7 7 6 7 8 10 10 10 9 9 11 10 11 11 12 12 13 14 15 15 10 14 9 3 3 1 3 4 1 3 9 9 8 9 10 12 14
8 6 8 10 9 8 9 9 9 10 10 11 10 10 10 11 12 11 11 11 11 12 12 13 12 11 10 8 9 4 3 2 6 1 5 5 6 12 8 8 9 11 14
6 7 9 9 9 10 11 12 12 14 14 14 12 12 12 12 13 13 13 12 12 11 11 11 11 9 8 9 7 3 3 3 1 4 3 5 8 13 9 9 8 9 13
5 7 9 11 13 13 14 15 16 17 18 18 17 17 15 14 15 14 15 15 15 14 13 12 12 11 9 9 7 5 4 4 6 4 4 6 18 10 6 15 5 6 11
5 7 9 12 14 14 15 17 19 20 21 20 20 19 18 17 16 16 16 17 17 17 16 14 13 13 12 12 11 10 9 4 2 5 3 4 7 6 18 6 4 4 9
Wind_Direction
97 93 97 83 78 69 60 56 47 37 23 29 30 22 14 11 0 1 0 359 2 7 2 355 357 357 10 358 345 353 3 4 359 331 314 332 293 331 337 338 343 342 12
126 109 94 83 81 81 74 66 64 47 37 28 22 14 359 360 347 348 336 327 335 339 347 351 347 343 345 349 346 330 335 345 345 337 312 277 278 293 301 307 342 325 324
129 116 94 85 76 67 56 49 41 34 26 19 10 11 9 7 5 3 355 1 335 335 320 335 335 333 335 340 332 327 324 326 323 327 313 297 282 278 280 281 271 265 277
117 107 94 82 70 60 49 38 30 25 12 7 360 356 352 349 348 344 347 355 353 339 332 329 329 330 332 327 325 326 325 313 299 297 307 300 288 275 274 273 270 253 254
118 107 94 82 69 52 34 20 10 4 353 347 341 338 338 340 338 332 330 331 332 335 341 336 336 335 333 326 321 322 321 321 320 291 297 303 297 285 280 290 304 247 251
126 117 104 87 61 36 18 3 2 357 356 352 348 352 2 358 354 345 327 328 329 326 326 328 325 325 322 322 322 319 313 310 309 300 292 294 291 292 287 290 310 258 254
129 116 102 77 42 21 15 13 11 12 18 18 14 12 8 3 8 10 353 339 333 327 325 324 324 324 320 315 309 304 305 301 294 291 292 295 294 295 296 293 283 280 258
124 112 91 60 33 17 14 11 13 21 23 27 18 8 0 356 357 358 359 355 345 334 327 330 336 328 324 317 309 309 306 301 296 292 292 292 295 299 301 296 289 285 279
122 102 68 43 30 20 9 13 9 7 11 13 10 6 5 1 359 356 5 13 19 24 20 13 353 347 350 342 332 329 327 322 308 295 290 292 293 296 303 294 297 292 276
122 102 65 40 26 18 13 12 10 7 10 12 9 8 6 3 4 4 4 3 1 1 358 350 343 342 339 338 335 333 332 333 343 340 315 300 300 307 312 307 298 294 285
133 103 62 40 22 17 16 16 10 8 6 7 9 8 4 5 2 1 2 359 351 345 338 331 326 322 320 318 317 314 312 313 315 318 325 323 315 333 347 320 307 304 294
156 117 60 35 21 20 18 15 17 17 16 12 9 8 7 7 4 2 358 353 345 337 331 325 320 316 313 313 312 309 307 302 296 295 297 295 298 321 333 341 330 320 317
176 158 83 31 17 15 15 16 19 18 15 5 359 3 6 5 2 1 0 357 353 346 339 333 329 327 327 325 324 321 317 312 306 302 295 290 286 287 298 308 314 315 315
194 187 141 18 8 9 10 10 16 16 14 6 7 11 11 8 6 7 6 6 6 6 3 360 356 349 342 340 336 331 325 319 314 315 316 306 298 300 310 324 330 331 328
205 207 220 338 358 358 0 8 9 12 17 21 16 9 5 7 10 11 10 7 7 5 3 1 359 357 356 356 352 345 343 336 330 328 338 340 342 23 33 18 359 349 338
209 211 217 286 334 342 351 0 2 1 12 13 7 1 3 5 8 7 6 5 0 357 356 354 355 356 357 355 352 350 353 4 10 18 39 31 21 21 34 29 20 8 3
210 211 217 241 303 323 334 337 336 335 350 358 1 1 1 3 3 7 358 358 357 354 351 349 351 353 352 357 354 352 8 38 49 63 57 52 43 32 27 35 35 31 28
209 211 209 234 279 313 325 325 318 318 321 336 348 354 356 358 356 3 357 355 352 349 347 350 350 352 354 358 357 6 27 48 70 63 52 45 42 40 32 27 31 37 34
211 208 212 234 268 295 316 307 304 303 300 309 328 342 347 353 351 355 354 349 346 347 347 350 355 354 356 357 3 19 56 78 86 62 51 46 41 36 34 32 27 24 31
210 207 218 237 264 291 303 296 299 293 297 298 311 326 336 343 343 346 349 346 345 347 348 352 354 357 1 356 6 36 106 114 101 64 49 44 39 32 29 28 28 30 25
199 205 225 254 282 284 288 302 299 303 302 293 300 309 320 326 328 335 340 342 342 346 349 352 353 355 1 4 9 19 151 127 87 59 45 44 36 25 16 19 21 21 18
196 212 246 274 278 276 286 295 292 299 298 296 295 300 306 305 313 319 327 334 338 342 344 349 356 355 349 6 7 339 354 271 240 240 207 46 29 3 358 2 4 9 11
202 237 271 283 282 276 279 276 281 285 289 289 296 295 296 289 297 305 311 317 325 330 335 341 345 351 349 347 4 18 356 312 325 295 242 283 345 359 348 341 354 0 5
232 273 288 293 283 277 274 273 277 279 280 288 293 294 296 288 289 293 296 301 306 310 315 320 324 328 327 325 337 324 285 267 260 322 280 278 317 341 351 347 333 351 0
294 304 307 300 292 285 277 273 276 276 279 284 285 287 288 285 285 289 291 290 292 296 300 304 305 306 305 300 298 312 312 283 242 245 293 318 326 329 320 326 302 348 358
0 354 335 313 300 293 284 278 275 275 280 281 285 287 289 288 286 288 288 287 289 287 289 292 292 290 288 285 284 279 268 268 250 235 256 294 291 308 321 290 253 317 359